Regional Weather Roundup
Issued by NWS

Home | Current Version | Previous Version | Text Only | Print | Product List | Glossary On
Versions: 1 2 3 4 5 6 7 8 9 10 11 12 13 14 15 16 17 18 19 20 21 22 23 24 25 26 27 28 29 30 31 32 33 34 35 36 37 38 39 40 41 42 43 44 45 46 47 48 49 50
000
ASUS44 KFWD 231115
RWRTX
NORTH TEXAS HOURLY WEATHER ROUNDUP
NATIONAL WEATHER SERVICE FORT WORTH TX
500 AM CST SUN NOV 23 2014

NOTE: "FAIR" INDICATES FEW OR NO CLOUDS BELOW 12,000 FEET WITH NO
SIGNIFICANT WEATHER AND/OR OBSTRUCTIONS TO VISIBILITY.

TXZ118-119-231200-
DALLAS/FORT WORTH METROPLEX

CITY           SKY/WX    TMP DP  RH WIND       PRES   REMARKS
DFW AIRPORT    CLOUDY    51  51 100 S8        29.60F
DALLAS LOVE    FOG       57  56  96 S5        29.61F VSB 1/2
FTW MEACHAM    MOCLDY    54  52  93 SW3       29.60F
DAL-EXECUTIVE  FOG       58  56  93 CALM      29.61F VSB 1/2
FTW-ALLIANCE   MOCLDY    53  52  96 S3        29.59F
FTW-SPINKS     PTCLDY    53  52  96 CALM      29.63F
ARLINGTON      PTCLDY    55  52  89 SE5       29.61F
GRAND PRAIRIE  MOCLDY    55  55 100 SE5       29.62F
LANCASTER      FOG       55  53  95 CALM      29.63F VSB 1/4
$$

TXZ091>094-102>105-117-120-121-131>134-231200-
NORTH CENTRAL TEXAS

CITY           SKY/WX    TMP DP  RH WIND       PRES   REMARKS
SHRMAN/DENISON CLOUDY    58  58 100 S8        29.61F
GAINESVILLE    MOCLDY    51  51  99 SE5       29.60F FOG
BOWIE          PTCLDY    51  51 100 SE5       29.57F
BRIDGEPORT     CLEAR     49  49 100 E3        29.59F
DECATUR        PTCLDY    54  52  95 S10       29.59F
DENTON         CLOUDY    52  51  97 S7        29.59F
MCKINNEY       CLOUDY    57  56  96 S5        29.62S FOG
GREENVILLE     CLOUDY    59  55  88 SW3       29.64R FOG
ROCKWALL       CLOUDY    57  57 100 S3        29.61S FOG
TERRELL        CLOUDY    59  57  93 CALM      29.62F
WAXAHACHIE     FOG       56  56 100 SW6       29.64S VSB 1/4
CLEBURNE       PTCLDY    52  52 100 S5        29.63F
GRANBURY       CLEAR     54  51  92 CALM      29.62S
$$

TXZ083>090-098>101-113>116-127>130-139>142-154-155-231200-
WESTERN NORTH TEXAS

CITY           SKY/WX    TMP DP  RH WIND       PRES   REMARKS
WICHITA FALLS  PTCLDY    51  50  96 S13       29.52F
WF-KICKAPOO    CLEAR     50  50 100 S7        29.54F
VERNON         CLOUDY    52  50  93 SW18      29.50F
ABILENE        CLEAR     51  49  92 S8        29.59F
ABILENE-DYESS  CLEAR     50  45  83 S3        29.59S
BRECKENRIDGE   CLEAR     52  51  96 S8        29.56F
GRAHAM         CLEAR     51  51 100 SE5       29.55F
MINERAL WELLS  CLEAR    N/A N/A N/A SE8       29.57F HAZE
STEPHENVILLE   PTCLDY    51  49  93 S5        29.63F
COMANCHE       CLEAR     54  54 100 SW9       29.61F
BROWNWOOD      FOG       48  48 100 S5        29.63F VSB 1/2
COLEMAN        CLEAR     51  49  93 S6        29.62F
BRADY          CLEAR     48  48 100 S6        29.65S
$$

TXZ143>147-156>162-174-175-231200-
CENTRAL TEXAS

CITY           SKY/WX    TMP DP  RH WIND       PRES   REMARKS
WACO           MOCLDY    53  53 100 SW3       29.64F
WACO-MCGREGOR  MOCLDY    55  50  82 SW3       29.65F
HILLSBORO      PTCLDY    54  52  93 S3        29.63F FOG
CORSICANA      LGT RAIN  59  57  93 CALM      29.63F
MEXIA          FOG       58  58  99 SW3       29.63F VSB 1
HEARNE         CLOUDY    58  57  96 SW8       29.67R
CAMERON        CLOUDY    59  58  97 W5        29.66S
TEMPLE         CLOUDY    55  52  88 SE5       29.64F
KILLEEN        PTCLDY    53  52  98 S6        29.65F
KILLEEN-SKYLRK MOCLDY    54  48  82 CALM      29.64F
FORT HOOD      MOCLDY    56  54  93 CALM      29.65F
GATESVILLE     PTCLDY    54  54 100 S5        29.67S
HAMILTON       CLEAR     51  51 100 S13       29.63F
LAMPASAS       CLEAR     55  54  97 SW5       29.63F
$$

TXZ095>097-106>112-122>126-135>138-148>153-164>167-231200-
EAST TEXAS

CITY           SKY/WX    TMP DP  RH WIND       PRES   REMARKS
PARIS          CLOUDY    59  57  94 SE7       29.62F
SULPHUR SPRNGS FOG       56  56 100 CALM      29.63S VSB 1/2
MOUNT PLEASANT CLOUDY    59  59  99 E5        29.62F
MINEOLA        CLOUDY    59  59 100 CALM      29.63R
TYLER          LGT RAIN  61  58  90 W6        29.62R
LONGVIEW       LGT RAIN  62  59  90 SE10      29.57F
MARSHALL       CLOUDY    59  56  91 SE7       29.63R
ATHENS         LGT RAIN  59  57  94 CALM      29.62F
PALESTINE      LGT RAIN  62  62 100 W7        29.63S
JACKSONVILLE   CLOUDY    63  62  96 S13       29.61R
HENDERSON      LGT RAIN  61  61 100 SE10G16   29.59F
NACOGDOCHES    CLOUDY    63  61  94 SE15      29.59F
LUFKIN         CLOUDY    65  61  87 E10       29.58F
$$

SUPPLEMENTAL OBSERVATIONS (CENTRAL)

CITY           SKY/WX    TMP DP  RH WIND       PRES   REMARKS
LAKE TEXOMA      N/A     57  54  88 S3          N/A
CADDO GRASSLND   N/A     57  54  88 S3          N/A
PAT MAYSE LAKE   N/A     59  57  94 E6          N/A
PALESTINE        N/A    N/A N/A N/A W2          N/A
LAKE LIMESTONE   N/A     59  55  88 SW8         N/A
MCGREGOR         N/A     54  52  94 S3          N/A
TEMPLE           N/A     55  54  94 CALM        N/A
$$

SUPPLEMENTAL OBSERVATIONS (WEST)

CITY           SKY/WX    TMP DP  RH WIND       PRES   REMARKS
MILLERS CREEK    N/A     52  48  87 SW12        N/A
POSSUM KINGDOM   N/A     52  48  87 S5          N/A
LBJ GRASSLAND    N/A     52  48  87 SE7         N/A
GRANBURY         N/A     52  48  87 S3          N/A
COMANCHE         N/A     54  52  94 SW9         N/A
HAMBY            N/A     50  45  81 S8          N/A
IVIE RESERVOIR   N/A     50  45  81 NE5         N/A
COLORADO BEND    N/A     54  50  87 SW7         N/A
$$

SUPPLEMENTAL OBSERVATIONS (EAST)

CITY           SKY/WX    TMP DP  RH WIND       PRES   REMARKS
CLARKSVILLE      N/A     59  57  94 E1          N/A
CADDO LAKE       N/A     61  59  94 SE5         N/A
GILMER           N/A     59  57  94 NE1         N/A
HENDERSON        N/A     61  57  88 SE10        N/A
LUFKIN           N/A     63  59  88 MISG        N/A
N SABINE NF      N/A    N/A N/A N/A MISG        N/A
S SABINE NF      N/A     61  57  88 CALM        N/A
$$

SUPPLEMENTAL OBSERVATIONS ARE A COLLECTION OF AUTOMATED INSTRUMENTS
THAT ARE MAINTAINED BY A VARIETY OF FEDERAL AND STATE AGENCIES.
CERTAIN ELEMENTS...SUCH AS HUMIDITY VALUES AND SUSTAINED WIND
SPEEDS...MAY BE APPROXIMATED.




USA.gov is the U.S. government's official web portal to all federal, state and local government web resources and services.